Weather History for PADQ - February, 2013

Change the Weather History Date:

Thursday, February 14, 2013

  Actual Average Record
Temperature  
Mean Temperature 37 °F 31 °F  
Max Temperature 40 °F 35 °F 44 °F (1959)
Min Temperature 33 °F 26 °F 0 °F (1985)
Degree Days  
Heating Degree Days 28 34  
Month to date heating degree days 428 485  
Since 1 July heating degree days 5446 5399  
Cooling Degree Days 0    
Month to date cooling degree days 0  
Year to date cooling degree days 0  
Moisture  
Dew Point 33 °F    
Average Humidity 0    
Maximum Humidity 0    
Minimum Humidity 0    
Precipitation  
Precipitation 0.50 in 0.22 in 1.38 in (1991)
Month to date precipitation 4.22 3.25  
Year to date precipitation 13.75 11.54  
Snow  
Snow 0.20 in 0.50 in 8.50 in (1957)
Month to date snowfall 4.3 7.5  
Since 1 July snowfall 33.7 41.8  
Snow Depth T in    
Sea Level Pressure  
Sea Level Pressure 29.29 in    
Wind  
Wind Speed 11 mph (NW)    
Max Wind Speed 22 mph    
Max Gust Speed 28 mph    
Visibility 7 miles    
Events Rain , Snow    
T = Trace of Precipitation, MM = Missing Value Source: NWS Daily Summary

Daily Weather History Graph

Daily Weather History Graph

Search for Another Location

Airport or City:

Trip Planner

Search our weather history database for the weather conditions in past years. The results will help you decide how hot, cold, wet, or windy it might be!

Date:

Astronomy

Feb. 14, 2013 Rise Set
Actual Time 8:41 AM AKST 6:07 PM AKST
Civil Twilight 8:00 AM AKST 6:48 PM AKST
Nautical Twilight 7:15 AM AKST 7:34 PM AKST
Astronomical Twilight 6:30 AM AKST 8:19 PM AKST
Moon 9:37 AM AKST (2/14) No Moon Set
Length of Visible Light 10h 47m
Length of Day
9h 25m
Waxing Crescent, 23% of the Moon is Illuminated
Feb 14
Waxing Crescent
Feb 17
First Quarter
Feb 25
Full
Mar 4
Last Quarter
Mar 11
New

Hourly Weather History & Observations

Time (AKST) Temp. Windchill Dew Point Humidity Pressure Visibility Wind Dir Wind Speed Gust Speed Precip Events Conditions
12:23 AM 37.4 °F 32.1 °F 35.6 °F 93% 29.42 in 10.0 mi ESE 6.9 mph - N/A   Overcast
12:53 AM 37.9 °F 33.5 °F 36.0 °F 93% 29.41 in 9.0 mi ESE 5.8 mph - N/A   Mostly Cloudy
1:18 AM 39.2 °F 33.0 °F 35.6 °F 87% 29.42 in 9.0 mi SE 9.2 mph - N/A   Overcast
1:53 AM 37.9 °F 31.5 °F 35.1 °F 89% 29.43 in 9.0 mi ESE 9.2 mph - N/A   Overcast
3:33 AM 37.4 °F 28.5 °F 35.6 °F 93% 29.35 in 6.0 mi East 15.0 mph - 0.00 in Rain Light Rain
3:51 AM 37.4 °F 29.8 °F 35.6 °F 93% 29.33 in 7.0 mi East 11.5 mph - 0.01 in Rain Light Rain
3:53 AM 37.9 °F 31.5 °F 36.0 °F 93% 29.34 in 7.0 mi East 9.2 mph - 0.01 in Rain Light Rain
4:04 AM 37.4 °F 30.3 °F 35.6 °F 93% 29.32 in 6.0 mi ENE 10.4 mph - 0.00 in Rain Light Rain
4:11 AM 37.4 °F 29.8 °F 35.6 °F 93% 29.31 in 5.0 mi ENE 11.5 mph - 0.00 in Rain Light Rain
4:53 AM 37.9 °F 28.2 °F 35.1 °F 89% 29.27 in 8.0 mi ENE 18.4 mph - 0.09 in Rain Light Rain
5:53 AM 37.0 °F 26.7 °F 35.1 °F 93% 29.21 in 7.0 mi NE 19.6 mph - 0.02 in Rain Light Rain
6:53 AM 36.0 °F 28.0 °F 33.1 °F 89% 29.16 in 10.0 mi NNE 11.5 mph - 0.06 in Rain , Snow Light Rain
7:16 AM 35.6 °F 26.6 °F 33.8 °F 93% 29.12 in 10.0 mi North 13.8 mph 21.9 mph 0.01 in Rain , Snow Light Rain
7:53 AM 36.0 °F 28.5 °F 33.1 °F 89% 29.11 in 5.0 mi NNW 10.4 mph - 0.06 in Rain , Snow Light Rain
8:22 AM 33.8 °F 25.8 °F 32.0 °F 93% 29.10 in 3.0 mi NW 10.4 mph - 0.08 in Rain , Snow Light Rain
8:30 AM 33.8 °F 27.7 °F 32.0 °F 93% 29.09 in 2.0 mi NW 6.9 mph 17.3 mph 0.10 in Rain , Snow Light Rain
8:53 AM 34.0 °F 26.0 °F 32.0 °F 92% 29.08 in 2.0 mi WNW 10.4 mph - 0.14 in Rain , Snow Light Rain
9:24 AM 33.8 °F 23.5 °F 32.0 °F 93% 29.07 in 2.5 mi WNW 16.1 mph 21.9 mph 0.03 in Rain , Snow Light Rain
9:31 AM 33.8 °F 23.5 °F 32.0 °F 93% 29.07 in 3.0 mi WNW 16.1 mph 21.9 mph 0.04 in Rain , Snow Light Rain
9:53 AM 35.1 °F 25.2 °F 32.0 °F 89% 29.07 in 5.0 mi WNW 16.1 mph - 0.05 in Rain , Snow Light Rain
10:53 AM 36.0 °F 26.0 °F 33.1 °F 89% 29.10 in 7.0 mi WNW 17.3 mph 25.3 mph 0.03 in Rain , Snow Light Rain
11:53 AM 37.0 °F 28.5 °F 33.1 °F 86% 29.16 in 5.0 mi WNW 13.8 mph 23.0 mph 0.03 in Rain , Snow Light Rain
12:53 PM 37.9 °F 31.5 °F 34.0 °F 86% 29.21 in 10.0 mi WNW 9.2 mph 18.4 mph 0.01 in Rain Light Rain
1:53 PM 39.0 °F 31.4 °F 33.1 °F 79% 29.27 in 10.0 mi WNW 12.7 mph - 0.00 in   Mostly Cloudy
2:20 PM 39.2 °F 29.8 °F 33.8 °F 81% 29.28 in 10.0 mi West 18.4 mph 26.5 mph N/A   Mostly Cloudy
2:53 PM 39.0 °F 30.6 °F 33.1 °F 79% 29.31 in 10.0 mi WNW 15.0 mph - 0.00 in   Mostly Cloudy
3:53 PM 39.9 °F 32.9 °F 32.0 °F 73% 29.35 in 10.0 mi WNW 11.5 mph 20.7 mph N/A   Scattered Clouds
4:53 PM 37.9 °F 32.7 °F 32.0 °F 79% 29.39 in 10.0 mi NW 6.9 mph - N/A   Mostly Cloudy
5:53 PM 37.0 °F 34.5 °F 32.0 °F 82% 29.42 in 10.0 mi West 3.5 mph - N/A   Mostly Cloudy
6:53 PM 35.1 °F 31.0 °F 32.0 °F 89% 29.45 in 10.0 mi SW 4.6 mph - N/A   Mostly Cloudy
7:53 PM 34.0 °F 29.8 °F 32.0 °F 92% 29.46 in 10.0 mi West 4.6 mph - N/A   Mostly Cloudy
8:53 PM 33.1 °F - 32.0 °F 96% 29.47 in 10.0 mi Calm Calm - N/A   Mostly Cloudy
9:53 PM 35.1 °F 27.4 °F 30.9 °F 85% 29.49 in 10.0 mi NW 10.4 mph - N/A   Overcast
10:53 PM 35.1 °F 27.4 °F 30.9 °F 85% 29.51 in 10.0 mi NW 10.4 mph - N/A   Overcast
11:53 PM 34.0 °F 25.0 °F 30.9 °F 89% 29.53 in 3.0 mi WNW 12.7 mph - 0.00 in Snow Light Snow